Location: Bairro Elisa Maria
(22.8725°S, 43.5733°W)
Time: 11:29:19
(UTC+00:00)

Daily predictions for brighter satellites

Satellite Brightness Start Highest point End
(mag) Time Altitude Azimuth Time Altitude Azimuth Time Altitude Azimuth
CZ-4B R/B 3.2 20:53:54 10° SSE 20:59:22 88° WSW 21:04:40 10° NNW
H-2A R/B 4.2 20:56:08 10° S 20:59:38 39° WSW 21:03:07 10° NNW
Cosmos 2082 Rocket 3.2 20:55:51 10° SSE 21:00:29 25° ESE 21:05:05 10° ENE
Hubble Space Telescope 1.7 20:58:45 10° WSW 21:02:38 37° S 21:06:30 10° ESE
BREEZE-M R/B 3.7 20:56:56 10° NNW 21:04:02 53° NE 21:07:39 10° ESE
SMAP 3.1 21:00:40 10° SSE 21:05:24 86° ENE 21:10:03 10° N
SL-24 R/B 4.2 21:03:44 10° NNE 21:07:46 54° ESE 21:12:24 10° S
Cosmos 1842 Rocket 3.7 21:06:08 10° N 21:10:37 89° WSW 21:15:09 10° S
Cosmos 2218 Rocket 4.5 21:05:49 10° SSE 21:11:39 37° E 21:17:21 10° NNE
GPS 2-04 Rocket1 3.2 21:10:49 10° NW 21:14:28 42° NNE 21:17:24 14° E
SEDSat Delta rocket 3.0 21:12:00 10° NW 21:15:59 60° NNE 21:19:28 14° ESE
Cosmos 614 Rocket 4.1 21:11:34 10° S 21:16:32 51° ESE 21:21:28 10° NNE
Cosmos 2251 Rocket 4.5 21:11:59 10° SSW 21:17:06 53° WNW 21:22:09 10° N
OAO 3 Rocket 3.6 21:13:08 10° SW 21:17:39 45° SSE 21:21:35 13° E
Delta 198 3.2 21:14:04 10° WNW 21:17:43 71° NNE 21:20:58 15° E
SWAS 4.4 21:14:23 10° SSW 21:18:40 71° ESE 21:22:55 10° NNE
Cosmos 1420 Rocket 4.0 21:15:47 10° N 21:21:02 78° ENE 21:26:18 10° SSE
Cosmos 332 Rocket 3.9 21:16:44 10° N 21:21:30 55° ENE 21:26:20 10° SSE
Envisat 3.9 21:16:53 10° S 21:21:51 52° WSW 21:26:46 10° NNW
Cosmos 1867 3.6 21:17:15 10° SSW 21:22:40 89° ESE 21:28:04 10° NNE
Delta 168 3.7 21:19:03 10° W 21:23:47 87° SSW 21:29:34 16° ESE
Cosmos 1633 2.6 21:20:19 10° S 21:23:52 52° E 21:27:20 10° NNE
GPS 2-12 Rocket1 3.5 21:19:55 10° WNW 21:24:13 50° N 21:27:37 16° E
CREW DRAGON DEMO-1 DEB 3.0 21:21:26 10° NW 21:24:29 71° SW 21:27:07 13° SE
Cosmos 1869 4.1 21:22:27 10° NNW 21:26:19 54° W 21:30:11 10° S
NOAA 11 4.3 21:22:35 10° SSE 21:27:54 52° E 21:33:10 10° N
NOSS 3-2 (A) 3.1 21:22:42 10° SSW 21:28:34 81° ESE 21:33:56 10° NNE
YAOGAN 1 3.9 21:28:00 18° E 21:28:54 19° E 21:31:57 10° NE
CZ-4 R/B 2.4 21:30:59 20° ESE 21:32:11 23° E 21:35:18 10° NNE
FengYun 1-2 T 4.2 21:29:38 10° SSE 21:35:17 82° ENE 21:40:48 10° N
Cosmos 371 Rocket 3.7 21:30:33 10° NNW 21:35:19 64° WSW 21:40:09 10° S
Meteor 2-3 Rocket 4.2 21:30:03 10° SSW 21:35:44 66° W 21:41:25 10° N
NOSS 3-2 (C) 3.3 21:30:05 10° SSW 21:35:47 49° ESE 21:41:00 10° NE
Cosmos 1959 Rocket 4.4 21:33:08 10° S 21:39:19 67° E 21:45:32 10° NNE
Nadezhda 3 Rocket 4.3 21:33:51 10° NNE 21:39:36 43° E 21:45:25 10° SSE
Cosmos 1408 Rocket 4.1 21:37:07 10° SSW 21:41:32 63° W 21:45:56 10° N
Cosmos 2369 Rocket 2.3 21:37:17 10° N 21:42:49 56° ENE 21:48:21 10° SSE
CZ-2D R/B 3.5 21:43:51 23° SE 21:45:47 42° E 21:49:24 10° N
Cosmos 1833 Rocket 3.3 21:41:21 10° SSW 21:46:53 59° WNW 21:52:22 10° N
Cosmos 1743 Rocket 3.4 21:42:47 10° S 21:47:11 67° E 21:51:32 10° NNE
CZ-2C R/B 2.8 21:43:37 10° NNE 21:48:45 49° ESE 21:54:03 10° S
RESURS DK-1 3.5 21:45:13 10° NW 21:49:12 45° WSW 21:53:13 10° S
Cosmos 2084 Rocket 3.7 21:46:20 10° S 21:50:20 41° ESE 21:51:08 37° E
Cosmos 1656 Rocket 4.5 21:45:49 10° NNE 21:50:35 29° ENE 21:51:14 28° E
Aurora 2 Rocket 2.5 21:49:00 10° W 21:51:59 44° NNW 21:53:06 31° NE
DMSP B5D2-2 4.2 21:47:10 10° NNE 21:52:14 49° ESE 21:57:21 10° S
Milstar 3 4.5 21:44:56 10° NNW 21:52:28 35° NE 21:58:51 23° E
Atlas Centaur 2 1.8 21:49:53 10° SW 21:53:20 35° SSE 21:53:42 34° SSE
Stardust Del rocket 2.6 21:54:38 10° W 21:56:32 56° WNW 21:56:32 56° WNW
Cosmos 1954 Rocket 4.4 21:52:30 10° S 21:57:25 39° ESE 21:58:40 34° ENE
MOS 1 Rocket 3.6 21:52:27 10° N 21:57:26 72° WNW 22:02:12 10° SSW
Delta 2 Rocket 4.0 21:54:26 10° SW 21:59:07 43° SSE 21:59:47 40° SE
ASTRO E2 2.6 21:57:31 10° WNW 22:01:33 87° SSW 22:02:15 60° ESE
Okean-O 2.5 21:58:30 10° SSE 22:02:59 87° E 22:07:26 10° NNW
Helios 1A Rocket 4.0 22:00:48 10° S 22:04:46 44° WSW 22:08:38 10° NNW
Cosmos 1500 Rocket 3.7 22:01:26 10° S 22:05:49 71° W 22:10:07 10° N
Cosmos 1821 Rocket 4.3 22:00:36 10° SSE 22:06:18 39° E 22:11:54 10° NNE
Cosmos 1943 Rocket 3.0 22:01:06 10° NW 22:06:25 50° WSW 22:11:47 10° S
Cosmos 1190 Rocket 4.0 22:04:23 10° SSW 22:09:37 79° WNW 22:14:50 10° N
Cosmos 407 Rocket 4.1 22:05:01 10° SSW 22:10:18 60° WNW 22:15:33 10° N
Cosmos 2366 rocket 4.4 22:04:33 10° SSW 22:10:53 64° W 22:17:05 10° N
ATLAS 3B R/B 3.5 22:05:50 10° S 22:11:10 31° SE 22:11:10 31° SE
CZ-4C R/B 3.2 22:03:33 10° NNW 22:12:05 78° WSW 22:19:12 13° SSE
SWIFT 2.7 22:08:19 10° WNW 22:12:29 50° N 22:12:41 49° NNE
Cosmos 1939 Rocket 3.5 22:08:48 10° S 22:12:39 52° WSW 22:16:26 10° NNW
CZ-2C R/B 4.5 22:22:02 23° NNE 22:22:02 23° NNE 22:24:03 10° N
Cosmos 1140 Rocket 4.4 22:25:08 10° SSW 22:30:09 48° WNW 22:35:09 10° N
Molniya-1 4.1 22:29:14 10° SSW 22:35:29 66° SSW 22:35:29 66° SSW
CSL-04 Rocket 4.0 22:37:57 53° N 22:37:57 53° N 22:42:01 10° N
H-2A R/B 4.2 22:41:37 15° N 22:41:37 15° N 22:42:33 10° N
H-2A R/B 4.3 22:32:09 10° WSW 22:38:42 56° S 22:46:58 37° ESE
H-2A R/B 4.3 22:32:09 10° WSW 22:38:42 56° S 22:46:59 37° ESE
Cosmos 1331 Rocket 4.2 22:34:41 10° NNW 22:38:53 60° NNW 22:38:53 60° NNW
Hubble Space Telescope 2.7 22:40:02 10° WSW 22:42:01 26° WSW 22:42:01 26° WSW
Cosmos 2082 Rocket 4.0 22:39:31 10° SW 22:44:25 30° WNW 22:49:17 10° NNW
CENTAUR R/B 3.4 22:41:51 10° SW 22:46:37 36° WNW 22:50:30 14° N
Milstar 3 Cent rocket 3.0 22:43:30 10° WSW 22:46:57 36° SW 22:46:57 36° SW
CZ-4 R/B 4.3 23:07:00 14° WSW 23:07:00 14° WSW 23:08:55 10° WNW
